Waarnemingen

Advertentie
Mijn weer
Ristem, Zweden (2013): temperatuur & dauwpunt: 16.07.2018 18:00:00 - 22.07.2018 18:00:00 (CEST)Ristem, Zweden (2013): windsnelheid & windstoten: 16.07.2018 18:00:00 - 22.07.2018 18:00:00 (CEST)Ristem, Zweden (2013): windrichting: 16.07.2018 18:00:00 - 22.07.2018 18:00:00 (CEST)Ristem, Zweden (2013): luchtdruk: 16.07.2018 18:00:00 - 22.07.2018 18:00:00 (CEST)Ristem, Zweden (2013): zicht: 16.07.2018 18:00:00 - 22.07.2018 18:00:00 (CEST)Ristem, Zweden (2013): neerslag: 16.07.2018 18:00:00 - 22.07.2018 18:00:00 (CEST)
Datum & Tijd tt [°C] td [°C] ff [km/u] ff [kn] fx [km/u] fx [kn] dd ppp [hPa] vv [km] rr [mm]
22.07.2018 18:00:00 - - - - - - - - - -
22.07.2018 17:00:00 17,8 12,3 15 8 30 16 WNW 1003,4 42 0,0
22.07.2018 16:00:00 18,7 12,4 15 8 30 16 W 1003,1 36 0,0
22.07.2018 15:00:00 19,5 13,0 13 7 24 13 W 1002,7 41 0,0
22.07.2018 14:00:00 20,1 13,1 11 6 21 11 WZW 1003,0 35 0,0
22.07.2018 13:00:00 17,6 12,9 8 5 20 11 WZW 1004,0 39 0,0
22.07.2018 12:00:00 16,4 12,9 4 2 9 5 ZZW 1004,5 36 0,0
22.07.2018 11:00:00 14,9 12,8 4 2 9 5 OZO 1005,2 30 0,0
22.07.2018 10:00:00 14,5 12,7 4 2 10 6 WZW 1005,5 29 0,0
22.07.2018 09:00:00 14,6 13,0 4 2 10 6 ZZO 1005,5 29 0,0
22.07.2018 08:00:00 14,5 13,2 5 3 10 6 W 1005,9 19 0,0
22.07.2018 07:00:00 14,4 13,3 3 2 12 6 W 1006,0 13 0,0
22.07.2018 06:00:00 14,2 13,1 5 3 12 6 N 1006,2 21 0,0
22.07.2018 05:00:00 13,8 12,4 6 3 11 6 N 1006,3 42 0,0
22.07.2018 04:00:00 12,2 12,0 5 3 11 6 NNO 1006,6 0,6 0,0
22.07.2018 03:00:00 12,1 11,6 3 2 13 7 N 1006,7 21 0,0
22.07.2018 02:00:00 13,0 11,6 7 4 19 11 NNO 1006,2 48 0,0
22.07.2018 01:00:00 14,6 12,3 12 7 19 11 N 1005,7 50 0,0
22.07.2018 00:00:00 13,8 11,8 7 4 16 9 N 1006,3 50 0,0
21.07.2018 23:00:00 13,5 13,2 3 2 10 5 N 1006,4 14 0,0
21.07.2018 22:00:00 15,6 14,3 5 3 11 6 NO 1006,2 31 0,0
21.07.2018 21:00:00 16,6 14,6 4 2 18 10 N 1006,0 43 0,0
21.07.2018 20:00:00 16,6 13,9 7 4 18 10 N 1006,0 50 0,0
21.07.2018 19:00:00 17,8 14,1 9 5 31 17 NNO 1005,7 31 1,4
21.07.2018 18:00:00 15,9 13,0 11 6 44 24 NW 1007,4 10 0,3
21.07.2018 17:00:00 18,0 13,1 13 7 44 24 W 1006,4 38 0,0
21.07.2018 16:00:00 22,5 12,4 13 7 27 15 ZO 1004,2 48 0,0
21.07.2018 15:00:00 23,7 13,3 10 5 26 14 ZZO 1004,7 31 0,0
21.07.2018 14:00:00 22,3 12,8 6 3 25 13 Z 1005,1 45 0,0
21.07.2018 13:00:00 21,2 12,1 6 3 29 16 Z 1006,0 43 0,0
21.07.2018 12:00:00 21,7 11,7 11 6 29 16 ZO 1006,3 42 0,0
21.07.2018 11:00:00 19,4 13,1 4 2 11 6 ZZW 1007,4 44 0,0
21.07.2018 10:00:00 18,4 13,9 4 2 9 5 ZW 1008,0 49 0,0
21.07.2018 09:00:00 16,8 14,3 3 2 9 5 ZW 1008,6 40 0,0
21.07.2018 08:00:00 17,3 14,0 3 2 9 5 NO 1008,8 42 0,0
21.07.2018 07:00:00 14,9 12,9 3 2 13 7 ONO 1009,9 41 0,0
21.07.2018 06:00:00 16,0 12,7 8 4 16 9 NNO 1009,9 47 0,0
21.07.2018 05:00:00 14,2 11,7 9 5 22 12 NNO 1010,7 50 0,0
21.07.2018 04:00:00 14,2 11,9 14 7 23 13 N 1010,7 50 0,0
21.07.2018 03:00:00 13,1 11,7 16 9 29 16 NNO 1011,2 50 0,0
21.07.2018 02:00:00 12,2 11,7 16 9 29 16 NNO 1011,8 15 0,0
21.07.2018 01:00:00 13,9 12,3 15 8 24 13 N 1011,8 46 0,0
21.07.2018 00:00:00 14,4 12,8 13 7 23 13 NNO 1012,4 47 0,0
20.07.2018 23:00:00 14,6 13,0 14 8 22 12 N 1012,1 41 0,0
20.07.2018 22:00:00 15,6 13,8 12 6 22 12 N 1012,0 49 0,0
20.07.2018 21:00:00 17,3 13,8 6 4 14 8 N 1011,8 42 0,0
20.07.2018 20:00:00 17,4 14,9 3 2 - - NW 1012,3 40 0,0
20.07.2018 19:00:00 17,4 14,7 - - - - - 1012,4 - 0,0
20.07.2018 18:00:00 17,0 14,6 - - - - - 1012,5 - 0,0
20.07.2018 17:00:00 17,6 15,0 10 6 - - N 1012,8 - 0,2
20.07.2018 16:00:00 16,4 14,6 10 6 21 11 N 1013,3 - 1,2
20.07.2018 15:00:00 15,4 14,1 4 2 11 6 O 1014,6 12 1,0
20.07.2018 14:00:00 16,9 13,2 4 2 11 6 ZZO 1013,5 50 0,0
20.07.2018 13:00:00 16,0 12,6 5 3 12 6 Z 1014,0 50 0,0
20.07.2018 12:00:00 16,3 12,7 6 3 12 6 Z 1014,1 47 0,0
20.07.2018 11:00:00 15,6 12,4 6 3 11 6 Z 1014,8 43 0,0
20.07.2018 10:00:00 13,9 11,9 4 2 9 5 Z 1015,3 42 0,0
20.07.2018 09:00:00 13,1 11,8 3 2 6 4 Z 1015,9 36 0,0
20.07.2018 08:00:00 12,8 12,2 2 1 5 3 ZO 1016,2 24 0,0
20.07.2018 07:00:00 12,3 12,1 3 1 8 4 ZZW 1016,4 14 0,0
20.07.2018 06:00:00 12,5 12,0 3 2 16 9 O 1016,7 6 0,0
20.07.2018 05:00:00 12,6 11,8 6 4 16 9 NO 1017,0 28 1,3
20.07.2018 04:00:00 12,4 11,9 3 2 10 6 O 1017,7 6 0,9
20.07.2018 03:00:00 12,8 11,4 4 2 10 6 NNO 1017,3 50 0,0
20.07.2018 02:00:00 12,9 11,6 4 2 12 6 N 1017,5 47 0,0
20.07.2018 01:00:00 12,8 11,7 4 2 12 7 N 1017,8 46 0,1
20.07.2018 00:00:00 13,1 11,7 4 2 12 7 NO 1018,3 50 0,0
19.07.2018 23:00:00 13,0 12,1 3 2 9 5 NNO 1018,2 17 0,0
19.07.2018 22:00:00 13,3 12,2 5 3 13 7 NNW 1018,5 26 0,0
19.07.2018 21:00:00 13,6 12,2 4 2 13 7 N 1018,5 50 0,1
19.07.2018 20:00:00 13,4 12,1 5 3 13 7 N 1018,5 39 0,0
19.07.2018 19:00:00 13,7 11,6 5 3 30 16 ONO 1018,2 45 0,0
19.07.2018 18:00:00 14,2 11,7 14 8 30 16 WNW 1018,1 50 0,0
19.07.2018 17:00:00 14,3 12,3 13 7 29 15 WNW 1017,8 19 0,4
19.07.2018 16:00:00 15,9 14,6 7 4 34 19 N 1017,0 24 0,0
19.07.2018 15:00:00 14,9 14,1 11 6 50 27 NW 1017,2 11 13,4
19.07.2018 14:00:00 14,3 12,9 23 12 50 27 WNW 1017,6 3,3 4,4
19.07.2018 13:00:00 20,9 14,5 12 7 31 17 WNW 1013,6 32 0,0
19.07.2018 12:00:00 21,6 14,0 8 4 22 12 ZW 1013,9 37 0,0
19.07.2018 11:00:00 22,0 13,9 5 3 16 9 Z 1014,1 43 0,0
19.07.2018 10:00:00 20,8 12,7 4 2 13 7 ZZO 1014,4 41 0,0
19.07.2018 09:00:00 19,9 12,9 5 3 16 9 ZZO 1014,7 45 0,0
19.07.2018 08:00:00 19,2 11,5 6 3 16 9 ZO 1014,7 47 0,0
19.07.2018 07:00:00 18,3 11,6 6 3 15 8 O 1014,6 41 0,0
19.07.2018 06:00:00 16,5 11,6 6 4 14 7 W 1015,2 41 0,0
19.07.2018 05:00:00 14,9 12,8 5 3 13 7 NO 1015,2 43 0,0
19.07.2018 04:00:00 16,0 12,9 6 3 16 9 NNO 1015,4 50 0,0
19.07.2018 03:00:00 15,3 12,8 9 5 24 13 NNO 1015,7 50 0,0
19.07.2018 02:00:00 15,8 13,5 10 5 29 15 NO 1015,9 50 0,0
19.07.2018 01:00:00 16,6 13,7 13 7 29 15 NNO 1015,7 50 0,0
19.07.2018 00:00:00 17,0 13,7 12 6 22 12 N 1016,6 50 0,0
18.07.2018 23:00:00 16,7 13,8 10 5 21 11 WNW 1017,0 47 2,9
18.07.2018 22:00:00 17,5 13,8 11 6 36 20 N 1016,7 45 0,0
18.07.2018 21:00:00 17,5 13,8 11 6 49 26 WNW 1015,9 33 1,1
18.07.2018 20:00:00 21,8 10,0 8 5 49 26 ZZO 1015,1 35 0,0
18.07.2018 19:00:00 24,6 10,1 4 2 18 10 ZZO 1013,1 50 0,0
18.07.2018 18:00:00 25,6 8,6 7 4 18 10 ZZO 1013,4 44 0,0
18.07.2018 17:00:00 27,4 7,8 8 4 17 9 ZZO 1013,4 41 0,0
18.07.2018 16:00:00 26,9 7,4 5 3 18 10 ZZO 1013,9 46 0,0
18.07.2018 15:00:00 24,5 11,1 6 3 31 17 ZZO 1014,8 50 0,0
18.07.2018 14:00:00 25,5 9,3 15 8 31 17 ZO 1014,9 50 0,0
18.07.2018 13:00:00 27,2 10,4 17 9 31 17 ZO 1014,6 37 0,0
18.07.2018 12:00:00 26,9 11,8 11 6 30 16 ZZO 1014,9 40 0,0
18.07.2018 11:00:00 26,1 12,5 13 7 30 16 ZO 1015,3 37 0,0
18.07.2018 10:00:00 24,2 11,8 9 5 26 14 Z 1015,8 38 0,0
18.07.2018 09:00:00 22,3 12,3 8 4 15 8 WZW 1016,4 42 0,0
18.07.2018 08:00:00 21,6 12,2 5 3 9 5 W 1016,6 42 0,0
18.07.2018 07:00:00 19,8 12,1 4 2 9 5 W 1017,1 48 0,0
18.07.2018 06:00:00 18,3 11,8 4 2 20 11 W 1017,6 46 0,0
18.07.2018 05:00:00 17,8 12,0 5 3 20 11 WNW 1017,9 50 0,0
18.07.2018 04:00:00 19,2 11,2 5 3 16 8 ZO 1017,7 50 0,0
18.07.2018 03:00:00 19,5 11,8 5 3 15 8 ONO 1017,7 50 0,0
18.07.2018 02:00:00 18,8 12,3 3 2 15 8 NNO 1017,7 50 0,0
18.07.2018 01:00:00 19,8 11,8 6 3 19 10 NNO 1017,4 45 0,0
18.07.2018 00:00:00 19,4 10,9 8 4 21 11 NNO 1017,4 49 0,0
17.07.2018 23:00:00 21,8 10,9 14 8 21 11 NNO 1016,8 48 0,0
17.07.2018 22:00:00 22,3 11,4 11 6 16 9 NNO 1016,6 50 0,0
17.07.2018 21:00:00 24,0 9,9 10 5 15 8 N 1016,0 50 0,0
17.07.2018 20:00:00 25,5 10,5 5 3 11 6 N 1015,6 44 0,0
17.07.2018 19:00:00 25,9 10,1 5 3 10 6 N 1015,6 38 0,0
17.07.2018 18:00:00 25,4 10,8 4 2 11 6 WZW 1015,9 45 0,0
17.07.2018 17:00:00 27,1 9,0 2 1 11 6 ONO 1015,3 50 0,0
17.07.2018 16:00:00 26,2 10,8 3 2 12 6 ZW 1015,6 46 0,0
17.07.2018 15:00:00 26,9 8,3 5 3 12 6 ZZO 1015,5 45 0,0
17.07.2018 14:00:00 27,4 7,3 3 2 10 6 ZZW 1015,5 38 0,0
17.07.2018 13:00:00 26,1 11,1 4 2 10 6 ZZW 1015,8 36 0,0
17.07.2018 12:00:00 25,6 12,4 4 2 8 5 Z 1016,0 36 0,0
17.07.2018 11:00:00 24,8 12,4 3 2 9 5 ZZW 1016,0 48 0,0
17.07.2018 10:00:00 21,9 11,3 4 2 10 5 ZW 1016,8 49 0,0
17.07.2018 09:00:00 19,7 10,4 5 3 10 5 WZW 1017,4 50 0,0
17.07.2018 08:00:00 19,0 10,5 4 2 9 5 WZW 1017,5 50 0,0
17.07.2018 07:00:00 17,7 10,8 3 2 9 5 WZW 1017,6 50 0,0
17.07.2018 06:00:00 17,7 10,3 4 2 11 6 WNW 1017,6 50 0,0
17.07.2018 05:00:00 15,4 10,4 4 2 11 6 NW 1018,1 50 0,0
17.07.2018 04:00:00 14,9 9,7 4 2 9 5 NO 1018,1 50 0,0
17.07.2018 03:00:00 14,3 9,1 3 2 16 9 N 1018,2 41 0,0
17.07.2018 02:00:00 14,6 9,2 7 4 20 11 NNO 1017,8 50 0,0
17.07.2018 01:00:00 17,3 8,7 14 8 20 11 NNO 1016,9 50 0,0
17.07.2018 00:00:00 17,9 9,0 14 8 18 10 NNO 1016,7 50 0,0
16.07.2018 23:00:00 17,8 9,2 11 6 16 8 NNO 1016,5 50 0,0
16.07.2018 22:00:00 18,2 9,0 10 6 13 7 NNO 1016,3 50 0,0
16.07.2018 21:00:00 20,9 9,8 2 1 9 5 NNO 1015,4 50 0,0
16.07.2018 20:00:00 22,5 8,6 0 0 9 5 N 1014,9 50 0,0
16.07.2018 19:00:00 22,8 8,1 4 2 9 5 Z 1014,8 50 0,0
16.07.2018 18:00:00 22,8 8,1 5 3 10 6 Z 1014,7 50 0,0

tt = temperatuur
td = dauwpunt
ff = windsnelheid
fx = windstoten
dd = windrichting
ppp = luchtdruk
vv = zicht
rr = neerslag

Weerstations in de omgeving